Time,TemperatureF,DewpointF,PressureIn,WindDirection,WindDirectionDegrees,WindSpeedMPH,WindSpeedGustMPH,Humidity,HourlyPrecipIn,Conditions,Clouds,dailyrainin,SoftwareType,DateUTC
2013-06-05 00:02:00,59.0,52.0,30.01,NNW,344,0.0,-999.0,78,-99.99,,,-99.99,,2013-06-05 04:02:00,
2013-06-05 00:13:00,59.0,52.0,30.01,NNW,344,0.0,-999.0,78,-99.99,,,-99.99,,2013-06-05 04:13:00,
2013-06-05 00:23:00,61.0,52.0,30.01,NNW,344,1.0,-999.0,71,-99.99,,,-99.99,,2013-06-05 04:23:00,
2013-06-05 00:33:00,61.0,49.0,30.00,NNW,344,2.0,-999.0,65,-99.99,,,-99.99,,2013-06-05 04:33:00,
2013-06-05 00:42:00,61.0,49.0,30.00,NNW,344,2.0,-999.0,65,-99.99,,,-99.99,,2013-06-05 04:42:00,
2013-06-05 00:53:00,61.0,50.0,30.00,NNW,345,0.0,-999.0,67,-99.99,,,-99.99,,2013-06-05 04:53:00,
2013-06-05 01:02:00,61.0,50.0,30.00,NNW,345,2.0,-999.0,67,-99.99,,,-99.99,,2013-06-05 05:02:00,
2013-06-05 01:12:00,61.0,50.0,30.00,NNW,345,2.0,-999.0,67,-99.99,,,-99.99,,2013-06-05 05:12:00,
2013-06-05 01:22:00,60.0,48.0,30.00,NNW,345,1.0,-999.0,65,-99.99,,,-99.99,,2013-06-05 05:22:00,
2013-06-05 01:32:00,60.0,50.0,30.00,NNW,345,0.0,-999.0,70,-99.99,,,-99.99,,2013-06-05 05:32:00,
2013-06-05 01:42:00,60.0,50.0,30.00,NNW,345,0.0,-999.0,70,-99.99,,,-99.99,,2013-06-05 05:42:00,
2013-06-05 01:52:00,59.0,48.0,30.00,NNW,345,2.0,-999.0,66,-99.99,,,-99.99,,2013-06-05 05:52:00,
2013-06-05 02:02:00,59.0,48.0,30.00,NNW,345,0.0,-999.0,68,-99.99,,,-99.99,,2013-06-05 06:02:00,
2013-06-05 02:12:00,59.0,48.0,30.00,NNW,345,0.0,-999.0,68,-99.99,,,-99.99,,2013-06-05 06:12:00,
2013-06-05 02:22:00,58.0,49.0,30.01,NNW,345,0.0,-999.0,71,-99.99,,,-99.99,,2013-06-05 06:22:00,
2013-06-05 02:32:00,57.0,47.0,30.01,NNW,345,0.0,-999.0,69,-99.99,,,-99.99,,2013-06-05 06:32:00,
2013-06-05 02:42:00,57.0,47.0,30.01,NNW,345,0.0,-999.0,69,-99.99,,,-99.99,,2013-06-05 06:42:00,
2013-06-05 02:52:00,58.0,46.0,30.01,NNW,345,2.0,-999.0,65,-99.99,,,-99.99,,2013-06-05 06:52:00,
2013-06-05 03:02:00,58.0,47.0,30.01,NNW,345,0.0,-999.0,66,-99.99,,,-99.99,,2013-06-05 07:02:00,
2013-06-05 03:12:00,58.0,47.0,30.01,NNW,345,0.0,-999.0,66,-99.99,,,-99.99,,2013-06-05 07:12:00,
2013-06-05 03:22:00,58.0,46.0,30.01,NNW,345,2.0,-999.0,64,-99.99,,,-99.99,,2013-06-05 07:22:00,
2013-06-05 03:32:00,57.0,47.0,30.02,NNW,345,0.0,-999.0,70,-99.99,,,-99.99,,2013-06-05 07:32:00,
2013-06-05 03:42:00,57.0,47.0,30.02,NNW,345,0.0,-999.0,70,-99.99,,,-99.99,,2013-06-05 07:42:00,
2013-06-05 03:52:00,56.0,47.0,30.01,NNW,345,0.0,-999.0,71,-99.99,,,-99.99,,2013-06-05 07:52:00,
2013-06-05 04:02:00,55.0,47.0,30.01,NNW,345,0.0,-999.0,75,-99.99,,,-99.99,,2013-06-05 08:02:00,
2013-06-05 04:12:00,55.0,47.0,30.01,NNW,345,0.0,-999.0,75,-99.99,,,-99.99,,2013-06-05 08:12:00,
2013-06-05 04:22:00,54.0,47.0,30.02,NNW,345,0.0,-999.0,78,-99.99,,,-99.99,,2013-06-05 08:22:00,
2013-06-05 04:32:00,53.0,47.0,30.03,NNW,345,0.0,-999.0,79,-99.99,,,-99.99,,2013-06-05 08:32:00,
2013-06-05 04:42:00,53.0,47.0,30.03,NNW,345,0.0,-999.0,79,-99.99,,,-99.99,,2013-06-05 08:42:00,
2013-06-05 04:52:00,52.0,46.0,30.03,NNW,345,0.0,-999.0,80,-99.99,,,-99.99,,2013-06-05 08:52:00,
2013-06-05 05:02:00,52.0,47.0,30.03,NNW,345,0.0,-999.0,83,-99.99,,,-99.99,,2013-06-05 09:02:00,
2013-06-05 05:12:00,52.0,47.0,30.03,NNW,345,0.0,-999.0,83,-99.99,,,-99.99,,2013-06-05 09:12:00,
2013-06-05 05:22:00,51.0,46.0,30.04,NNW,345,0.0,-999.0,84,-99.99,,,-99.99,,2013-06-05 09:22:00,
2013-06-05 05:33:00,51.0,47.0,30.04,NNW,345,0.0,-999.0,85,-99.99,,,-99.99,,2013-06-05 09:33:00,
2013-06-05 05:43:00,51.0,47.0,30.04,NNW,345,0.0,-999.0,85,-99.99,,,-99.99,,2013-06-05 09:43:00,
2013-06-05 05:53:00,50.0,46.0,30.05,NNW,345,0.0,-999.0,86,-99.99,,,-99.99,,2013-06-05 09:53:00,
2013-06-05 06:03:00,50.0,46.0,30.05,NNW,345,0.0,-999.0,86,-99.99,,,-99.99,,2013-06-05 10:03:00,
2013-06-05 06:12:00,50.0,46.0,30.05,NNW,345,0.0,-999.0,86,-99.99,,,-99.99,,2013-06-05 10:12:00,
2013-06-05 06:22:00,50.0,46.0,30.06,NNW,345,0.0,-999.0,87,-99.99,,,-99.99,,2013-06-05 10:22:00,
2013-06-05 06:33:00,51.0,47.0,30.06,NNW,345,0.0,-999.0,87,-99.99,,,-99.99,,2013-06-05 10:33:00,
2013-06-05 06:42:00,51.0,47.0,30.06,NNW,345,0.0,-999.0,87,-99.99,,,-99.99,,2013-06-05 10:42:00,
2013-06-05 06:53:00,51.0,47.0,30.07,NNW,345,0.0,-999.0,86,-99.99,,,-99.99,,2013-06-05 10:53:00,
2013-06-05 07:02:00,53.0,47.0,30.08,NNW,345,0.0,-999.0,79,-99.99,,,-99.99,,2013-06-05 11:02:00,
2013-06-05 07:12:00,53.0,47.0,30.08,NNW,345,0.0,-999.0,79,-99.99,,,-99.99,,2013-06-05 11:12:00,
2013-06-05 07:22:00,56.0,47.0,30.08,NNW,345,2.0,-999.0,71,-99.99,,,-99.99,,2013-06-05 11:22:00,
2013-06-05 07:32:00,57.0,46.0,30.09,NNW,347,2.0,-999.0,66,-99.99,,,-99.99,,2013-06-05 11:32:00,
2013-06-05 07:42:00,57.0,46.0,30.09,NNW,347,2.0,-999.0,66,-99.99,,,-99.99,,2013-06-05 11:42:00,
2013-06-05 07:52:00,58.0,47.0,30.08,NNW,348,1.0,-999.0,66,-99.99,,,-99.99,,2013-06-05 11:52:00,
2013-06-05 08:02:00,59.0,48.0,30.09,NNW,348,1.0,-999.0,67,-99.99,,,-99.99,,2013-06-05 12:02:00,
2013-06-05 08:12:00,59.0,48.0,30.09,NNW,348,1.0,-999.0,67,-99.99,,,-99.99,,2013-06-05 12:12:00,
2013-06-05 08:22:00,61.0,47.0,30.09,North,355,1.0,-999.0,60,-99.99,,,-99.99,,2013-06-05 12:22:00,
2013-06-05 08:32:00,63.0,47.0,30.09,NE,51,1.0,-999.0,56,-99.99,,,-99.99,,2013-06-05 12:32:00,
2013-06-05 08:44:00,63.0,47.0,30.09,NE,51,1.0,-999.0,56,-99.99,,,-99.99,,2013-06-05 12:44:00,
2013-06-05 08:52:00,63.0,47.0,30.09,NE,53,2.0,-999.0,56,-99.99,,,-99.99,,2013-06-05 12:52:00,
2013-06-05 09:02:00,64.0,48.0,30.09,NE,56,1.0,-999.0,57,-99.99,,,-99.99,,2013-06-05 13:02:00,
2013-06-05 09:12:00,64.0,48.0,30.09,NE,56,1.0,-999.0,57,-99.99,,,-99.99,,2013-06-05 13:12:00,
2013-06-05 09:22:00,64.0,48.0,30.09,East,82,1.0,-999.0,56,-99.99,,,-99.99,,2013-06-05 13:22:00,
2013-06-05 09:32:00,66.0,48.0,30.10,ENE,67,1.0,-999.0,53,-99.99,,,-99.99,,2013-06-05 13:32:00,
2013-06-05 09:42:00,66.0,48.0,30.10,ENE,67,1.0,-999.0,53,-99.99,,,-99.99,,2013-06-05 13:42:00,
2013-06-05 09:53:00,67.0,50.0,30.10,ENE,66,0.0,-999.0,54,-99.99,,,-99.99,,2013-06-05 13:53:00,
2013-06-05 10:02:00,67.0,49.0,30.09,East,96,1.0,-999.0,53,-99.99,,,-99.99,,2013-06-05 14:02:00,
2013-06-05 10:12:00,67.0,49.0,30.09,East,96,1.0,-999.0,53,-99.99,,,-99.99,,2013-06-05 14:12:00,
2013-06-05 10:22:00,68.0,50.0,30.09,East,92,1.0,-999.0,53,-99.99,,,-99.99,,2013-06-05 14:22:00,
2013-06-05 10:32:00,68.0,51.0,30.09,East,87,1.0,-999.0,55,-99.99,,,-99.99,,2013-06-05 14:32:00,
2013-06-05 10:42:00,68.0,51.0,30.09,East,87,1.0,-999.0,55,-99.99,,,-99.99,,2013-06-05 14:42:00,
2013-06-05 10:52:00,69.0,51.0,30.09,ESE,123,1.0,-999.0,52,-99.99,,,-99.99,,2013-06-05 14:52:00,
2013-06-05 11:02:00,70.0,49.0,30.08,ESE,116,1.0,-999.0,48,-99.99,,,-99.99,,2013-06-05 15:02:00,
2013-06-05 11:12:00,70.0,49.0,30.08,ESE,116,1.0,-999.0,48,-99.99,,,-99.99,,2013-06-05 15:12:00,
2013-06-05 11:23:00,70.0,50.0,30.08,ESE,123,1.0,-999.0,49,-99.99,,,-99.99,,2013-06-05 15:23:00,
2013-06-05 11:33:00,71.0,51.0,30.08,SE,128,0.0,-999.0,50,-99.99,,,-99.99,,2013-06-05 15:33:00,
2013-06-05 11:43:00,71.0,51.0,30.08,SSE,155,1.0,-999.0,49,-99.99,,,-99.99,,2013-06-05 15:43:00,
2013-06-05 11:53:00,71.0,51.0,30.08,SSE,155,1.0,-999.0,49,-99.99,,,-99.99,,2013-06-05 15:53:00,
2013-06-05 12:03:00,71.0,50.0,30.07,ESE,106,1.0,-999.0,47,-99.99,,,-99.99,,2013-06-05 16:03:00,
2013-06-05 12:12:00,71.0,50.0,30.07,ESE,106,1.0,-999.0,47,-99.99,,,-99.99,,2013-06-05 16:12:00,
2013-06-05 12:23:00,73.0,50.0,30.06,ESE,106,0.0,-999.0,45,-99.99,,,-99.99,,2013-06-05 16:23:00,
2013-06-05 12:32:00,74.0,50.0,30.06,ESE,105,0.0,-999.0,43,-99.99,,,-99.99,,2013-06-05 16:32:00,
2013-06-05 12:42:00,73.0,50.0,30.05,ESE,104,1.0,-999.0,44,-99.99,,,-99.99,,2013-06-05 16:42:00,
2013-06-05 12:54:00,73.0,50.0,30.05,ESE,104,1.0,-999.0,44,-99.99,,,-99.99,,2013-06-05 16:54:00,
2013-06-05 13:02:00,73.0,50.0,30.05,ESE,107,1.0,-999.0,44,-99.99,,,-99.99,,2013-06-05 17:02:00,
2013-06-05 13:13:00,73.0,50.0,30.05,ESE,107,1.0,-999.0,44,-99.99,,,-99.99,,2013-06-05 17:13:00,
2013-06-05 13:22:00,73.0,49.0,30.04,ESE,107,1.0,-999.0,43,-99.99,,,-99.99,,2013-06-05 17:22:00,
2013-06-05 13:33:00,74.0,51.0,30.04,ESE,123,1.0,-999.0,44,-99.99,,,-99.99,,2013-06-05 17:33:00,
2013-06-05 13:43:00,75.0,49.0,30.03,ESE,110,0.0,-999.0,40,-99.99,,,-99.99,,2013-06-05 17:43:00,
2013-06-05 13:52:00,75.0,49.0,30.03,ESE,110,0.0,-999.0,40,-99.99,,,-99.99,,2013-06-05 17:52:00,
2013-06-05 14:02:00,74.0,48.0,30.03,East,97,1.0,-999.0,40,-99.99,,,-99.99,,2013-06-05 18:02:00,
2013-06-05 14:12:00,74.0,48.0,30.03,East,97,1.0,-999.0,40,-99.99,,,-99.99,,2013-06-05 18:12:00,
2013-06-05 14:22:00,75.0,50.0,30.03,East,94,1.0,-999.0,41,-99.99,,,-99.99,,2013-06-05 18:22:00,
2013-06-05 14:32:00,75.0,49.0,30.02,West,274,2.0,-999.0,40,-99.99,,,-99.99,,2013-06-05 18:32:00,
2013-06-05 14:42:00,76.0,51.0,30.03,WSW,246,1.0,-999.0,42,-99.99,,,-99.99,,2013-06-05 18:42:00,
2013-06-05 14:52:00,76.0,51.0,30.03,WSW,246,1.0,-999.0,42,-99.99,,,-99.99,,2013-06-05 18:52:00,
2013-06-05 15:03:00,76.0,50.0,30.02,SW,227,2.0,-999.0,40,-99.99,,,-99.99,,2013-06-05 19:03:00,
2013-06-05 15:12:00,76.0,50.0,30.02,SW,227,2.0,-999.0,40,-99.99,,,-99.99,,2013-06-05 19:12:00,
2013-06-05 15:23:00,76.0,49.0,30.01,East,81,1.0,-999.0,39,-99.99,,,-99.99,,2013-06-05 19:23:00,
2013-06-05 15:32:00,77.0,52.0,30.01,ENE,75,1.0,-999.0,42,-99.99,,,-99.99,,2013-06-05 19:32:00,
2013-06-05 15:53:00,78.0,54.0,30.00,SE,138,1.0,-999.0,43,-99.99,,,-99.99,,2013-06-05 19:53:00,
2013-06-05 16:02:00,77.0,51.0,30.00,South,174,1.0,-999.0,40,-99.99,,,-99.99,,2013-06-05 20:02:00,
2013-06-05 16:12:00,77.0,51.0,30.00,South,187,2.0,-999.0,41,-99.99,,,-99.99,,2013-06-05 20:12:00,
2013-06-05 16:23:00,77.0,51.0,30.00,South,187,2.0,-999.0,41,-99.99,,,-99.99,,2013-06-05 20:23:00,
2013-06-05 16:32:00,77.0,51.0,30.01,SSE,163,1.0,-999.0,40,-99.99,,,-99.99,,2013-06-05 20:32:00,
2013-06-05 16:42:00,77.0,51.0,30.00,SSE,163,0.0,-999.0,41,-99.99,,,-99.99,,2013-06-05 20:42:00,
2013-06-05 16:52:00,77.0,51.0,30.00,SSE,163,0.0,-999.0,41,-99.99,,,-99.99,,2013-06-05 20:52:00,
2013-06-05 17:02:00,78.0,52.0,30.00,South,175,1.0,-999.0,40,-99.99,,,-99.99,,2013-06-05 21:02:00,
2013-06-05 17:12:00,78.0,52.0,30.00,South,175,1.0,-999.0,40,-99.99,,,-99.99,,2013-06-05 21:12:00,
2013-06-05 17:22:00,78.0,52.0,30.00,South,175,1.0,-999.0,40,-99.99,,,-99.99,,2013-06-05 21:22:00,
2013-06-05 17:33:00,78.0,52.0,30.01,South,184,0.0,-999.0,40,-99.99,,,-99.99,,2013-06-05 21:33:00,
2013-06-05 17:43:00,78.0,51.0,30.00,South,183,0.0,-999.0,39,-99.99,,,-99.99,,2013-06-05 21:43:00,
2013-06-05 17:53:00,78.0,51.0,30.00,South,183,0.0,-999.0,39,-99.99,,,-99.99,,2013-06-05 21:53:00,
2013-06-05 18:02:00,77.0,49.0,30.01,South,183,0.0,-999.0,38,-99.99,,,-99.99,,2013-06-05 22:02:00,
2013-06-05 18:12:00,77.0,49.0,30.01,South,183,0.0,-999.0,38,-99.99,,,-99.99,,2013-06-05 22:12:00,
2013-06-05 18:22:00,77.0,51.0,30.00,South,180,0.0,-999.0,40,-99.99,,,-99.99,,2013-06-05 22:22:00,
2013-06-05 18:33:00,77.0,51.0,30.00,South,170,0.0,-999.0,40,-99.99,,,-99.99,,2013-06-05 22:33:00,
2013-06-05 18:42:00,76.0,51.0,29.99,ESE,116,1.0,-999.0,42,-99.99,,,-99.99,,2013-06-05 22:42:00,
2013-06-05 18:53:00,76.0,51.0,29.99,ESE,116,1.0,-999.0,42,-99.99,,,-99.99,,2013-06-05 22:53:00,
2013-06-05 19:02:00,76.0,52.0,29.99,ESE,108,1.0,-999.0,44,-99.99,,,-99.99,,2013-06-05 23:02:00,
2013-06-05 19:12:00,75.0,52.0,29.99,SE,124,1.0,-999.0,45,-99.99,,,-99.99,,2013-06-05 23:12:00,
2013-06-05 19:22:00,75.0,52.0,29.99,SE,124,1.0,-999.0,45,-99.99,,,-99.99,,2013-06-05 23:22:00,
2013-06-05 19:32:00,73.0,57.0,30.00,ESE,117,2.0,-999.0,57,-99.99,,,-99.99,,2013-06-05 23:32:00,
2013-06-05 19:53:00,71.0,55.0,30.00,ENE,58,2.0,-999.0,58,-99.99,,,-99.99,,2013-06-05 23:53:00,
2013-06-05 20:02:00,70.0,55.0,29.99,East,89,1.0,-999.0,59,-99.99,,,-99.99,,2013-06-06 00:02:00,
2013-06-05 20:12:00,70.0,55.0,29.99,East,89,1.0,-999.0,59,-99.99,,,-99.99,,2013-06-06 00:12:00,
2013-06-05 20:22:00,69.0,55.0,30.00,ESE,120,1.0,-999.0,60,-99.99,,,-99.99,,2013-06-06 00:22:00,
2013-06-05 20:32:00,69.0,55.0,30.01,ESE,115,0.0,-999.0,62,-99.99,,,-99.99,,2013-06-06 00:32:00,
2013-06-05 20:42:00,69.0,55.0,30.01,ESE,115,0.0,-999.0,62,-99.99,,,-99.99,,2013-06-06 00:42:00,
2013-06-05 20:52:00,68.0,54.0,30.00,ESE,116,1.0,-999.0,62,-99.99,,,-99.99,,2013-06-06 00:52:00,
2013-06-05 21:02:00,67.0,54.0,30.00,ESE,121,0.0,-999.0,63,-99.99,,,-99.99,,2013-06-06 01:02:00,
2013-06-05 21:12:00,67.0,54.0,30.00,ESE,121,0.0,-999.0,63,-99.99,,,-99.99,,2013-06-06 01:12:00,
2013-06-05 21:22:00,67.0,55.0,30.01,ESE,119,0.0,-999.0,65,-99.99,,,-99.99,,2013-06-06 01:22:00,
2013-06-05 21:32:00,66.0,54.0,30.01,ESE,119,1.0,-999.0,65,-99.99,,,-99.99,,2013-06-06 01:32:00,
2013-06-05 21:42:00,66.0,54.0,30.01,ESE,119,1.0,-999.0,65,-99.99,,,-99.99,,2013-06-06 01:42:00,
2013-06-05 21:53:00,65.0,54.0,30.01,ESE,120,0.0,-999.0,67,-99.99,,,-99.99,,2013-06-06 01:53:00,
2013-06-05 22:02:00,65.0,55.0,30.03,ESE,120,0.0,-999.0,69,-99.99,,,-99.99,,2013-06-06 02:02:00,
2013-06-05 22:12:00,65.0,55.0,30.03,ESE,120,0.0,-999.0,69,-99.99,,,-99.99,,2013-06-06 02:12:00,
2013-06-05 22:22:00,64.0,54.0,30.03,ESE,118,0.0,-999.0,71,-99.99,,,-99.99,,2013-06-06 02:22:00,
2013-06-05 22:32:00,64.0,55.0,30.03,ESE,109,0.0,-999.0,73,-99.99,,,-99.99,,2013-06-06 02:32:00,
2013-06-05 22:42:00,64.0,55.0,30.03,ESE,109,0.0,-999.0,73,-99.99,,,-99.99,,2013-06-06 02:42:00,
2013-06-05 22:52:00,64.0,55.0,30.03,ESE,109,0.0,-999.0,73,-99.99,,,-99.99,,2013-06-06 02:52:00,
2013-06-05 23:02:00,62.0,54.0,30.03,ESE,116,0.0,-999.0,76,-99.99,,,-99.99,,2013-06-06 03:02:00,
2013-06-05 23:12:00,62.0,54.0,30.03,ESE,116,0.0,-999.0,76,-99.99,,,-99.99,,2013-06-06 03:12:00,
2013-06-05 23:22:00,62.0,55.0,30.03,ESE,116,0.0,-999.0,78,-99.99,,,-99.99,,2013-06-06 03:22:00,
2013-06-05 23:33:00,62.0,56.0,30.03,ESE,116,0.0,-999.0,80,-99.99,,,-99.99,,2013-06-06 03:33:00,
2013-06-05 23:43:00,62.0,56.0,30.03,ESE,116,0.0,-999.0,80,-99.99,,,-99.99,,2013-06-06 03:43:00,
2013-06-05 23:53:00,61.0,56.0,30.03,ESE,116,0.0,-999.0,83,-99.99,,,-99.99,,2013-06-06 03:53:00,